Location: Chevoux
(46.3801°N, 4.9476°E)
Time: 07:55:55
(UTC+00:00)

X-37B - Pass Details

Date: 21 April 2021
Orbit: 386 x 389 km, 45.0° (Epoch: 08 May)

Event Time Altitude Azimuth Distance (km) Brightness Sun altitude
Exits shadow 02:01:06 17° 100° (E) 1,089 3.1 -23.6°
Drops below altitude 10° 02:02:00 10° 92° (E) 1,415 3.9 -23.5°
Sets 02:04:10 0° 83° (E) 2,270 5.1 -23.3°
